�n�於,�u�CID,���t,����,�d��,�O�C��,����(���݊O�C���\����),����(2m),
�É�����03,nagoya3,2012-06-15,21:59:13,3.89,20.4,20.4,-9.9,
�É�����03,nagoya3,2012-06-15,20:59:20,3.84,20.6,20.7,-9.9,
�É�����03,nagoya3,2012-06-15,19:59:01,3.91,20.4,20.7,-9.9,
�É�����03,nagoya3,2012-06-15,18:58:56,3.91,20.7,20.9,-9.9,
�É�����03,nagoya3,2012-06-15,17:58:51,3.92,21.5,21.4,-9.9,
�É�����03,nagoya3,2012-06-15,16:58:46,3.93,21.9,21.8,-9.9,
�É�����03,nagoya3,2012-06-15,15:58:43,3.93,23.3,22.7,-9.9,
�É�����03,nagoya3,2012-06-15,14:58:45,3.94,25.5,23.8,-9.9,
�É�����03,nagoya3,2012-06-15,13:58:44,3.93,27,24.3,-9.9,
�É�����03,nagoya3,2012-06-15,11:58:49,3.93,25.8,23.8,-9.9,
�É�����03,nagoya3,2012-06-15,10:58:50,3.92,25.8,23.8,-9.9,
�É�����03,nagoya3,2012-06-15,09:58:56,3.92,27.4,24.5,-9.9,
�É�����03,nagoya3,2012-06-15,08:59:00,3.91,25.7,22.8,-9.9,
�É�����03,nagoya3,2012-06-15,07:58:58,3.91,21.4,20.2,-9.9,
�É�����03,nagoya3,2012-06-15,06:58:54,3.92,20.4,19.4,-9.9,
�É�����03,nagoya3,2012-06-15,05:58:46,3.92,19,18.7,-9.9,
�É�����03,nagoya3,2012-06-15,04:58:38,3.92,18.2,18.3,-9.9,
�É�����03,nagoya3,2012-06-15,03:58:31,3.92,18.3,18.3,-9.9,
�É�����03,nagoya3,2012-06-15,02:58:23,3.93,18.6,18.7,-9.9,
�É�����03,nagoya3,2012-06-15,01:58:18,3.93,18.7,18.9,-9.9,
�É�����03,nagoya3,2012-06-15,00:58:07,3.94,19,18.9,-9.9,
�É�����03,nagoya3,2012-06-14,23:58:02,3.96,19.2,19.1,-9.9,
�É�����03,nagoya3,2012-06-14,21:57:45,3.97,19.5,19.4,-9.9,
�É�����03,nagoya3,2012-06-14,20:57:37,3.97,19.6,19.7,-9.9,
�É�����03,nagoya3,2012-06-14,19:57:29,3.97,18.8,19.3,-9.9,
�É�����03,nagoya3,2012-06-14,18:57:22,3.97,19.6,19.9,-9.9,
�É�����03,nagoya3,2012-06-14,17:57:17,3.98,21,20.9,-9.9,
�É�����03,nagoya3,2012-06-14,16:57:11,3.97,21.8,21.6,-9.9,
�É�����03,nagoya3,2012-06-14,15:57:07,3.98,22.6,22.2,-9.9,
�É�����03,nagoya3,2012-06-14,14:57:06,4,24.1,22.4,-9.9,
�É�����03,nagoya3,2012-06-14,13:57:06,4,27.3,22.7,-9.9,
�É�����03,nagoya3,2012-06-14,12:57:09,4,27.3,22.2,-9.9,
�É�����03,nagoya3,2012-06-14,11:57:14,3.98,27.6,24.1,-9.9,
�É�����03,nagoya3,2012-06-14,10:57:18,4,26.1,22.7,-9.9,
�É�����03,nagoya3,2012-06-14,09:57:20,3.97,25.5,22.2,-9.9,
�É�����03,nagoya3,2012-06-14,08:57:23,3.97,25.7,22.2,-9.9,
�É�����03,nagoya3,2012-06-14,07:57:24,3.97,23.9,22.0,-9.9,
�É�����03,nagoya3,2012-06-14,06:57:22,3.94,21.8,23.3,-9.9,
�É�����03,nagoya3,2012-06-14,05:57:16,3.94,18.8,18.3,-9.9,
�É�����03,nagoya3,2012-06-14,04:57:09,3.94,17.3,17.1,-9.9,
�É�����03,nagoya3,2012-06-14,03:56:58,3.93,17.4,17.1,-9.9,
�É�����03,nagoya3,2012-06-14,02:56:48,3.97,17.4,17.3,-9.9,
�É�����03,nagoya3,2012-06-14,01:56:39,3.97,17.5,17.3,-9.9,
�É�����03,nagoya3,2012-06-14,00:56:29,3.98,17.6,17.3,-9.9,
�É�����03,nagoya3,2012-06-13,23:56:23,4,17.8,17.5,-9.9,
�É�����03,nagoya3,2012-06-13,22:56:08,4,18,17.8,-9.9,
�É�����03,nagoya3,2012-06-13,21:56:00,4,18.1,18.0,-9.9,
�É�����03,nagoya3,2012-06-13,20:55:50,4.01,18.4,18.3,-9.9,
�É�����03,nagoya3,2012-06-13,18:55:37,4.02,19.2,19.1,-9.9,
�É�����03,nagoya3,2012-06-13,17:55:30,4.02,20.7,19.9,-9.9,
�É�����03,nagoya3,2012-06-13,16:55:23,4.01,21.1,20.2,-9.9,
�É�����03,nagoya3,2012-06-13,15:55:19,4.02,22.1,20.7,-9.9,
�É�����03,nagoya3,2012-06-13,14:55:16,4.02,23.3,21.4,-9.9,
�É�����03,nagoya3,2012-06-13,12:55:23,4.03,25.8,21.2,-9.9,
�É�����03,nagoya3,2012-06-13,11:55:23,4.05,25,21.6,-9.9,
�É�����03,nagoya3,2012-06-13,10:55:21,4.03,23.8,20.9,-9.9,
�É�����03,nagoya3,2012-06-13,09:55:21,4.03,24.3,20.9,-9.9,
�É�����03,nagoya3,2012-06-13,05:55:05,4.05,18.3,17.5,-9.9,
�É�����03,nagoya3,2012-06-13,04:54:56,4.06,17.7,17.5,-9.9,
�É�����03,nagoya3,2012-06-13,03:54:47,4.05,17.8,17.8,-9.9,
�É�����03,nagoya3,2012-06-13,02:54:39,4.06,18.3,18.3,-9.9,
�É�����03,nagoya3,2012-06-13,01:54:30,4.06,18.1,18.0,-9.9,
�É�����03,nagoya3,2012-06-13,00:54:23,4.07,17.3,17.3,-9.9,
�É�����03,nagoya3,2012-06-12,23:54:10,4.06,17.1,17.1,-9.9,
�É�����03,nagoya3,2012-06-12,22:54:01,4.07,17.7,17.3,-9.9,
�É�����03,nagoya3,2012-06-12,21:53:53,4.07,17.6,17.3,-9.9,
�É�����03,nagoya3,2012-06-12,20:53:40,4.09,17,16.9,-9.9,
�É�����03,nagoya3,2012-06-12,19:53:28,4.1,16,16.0,-9.9,
�É�����03,nagoya3,2012-06-12,18:53:18,4.09,16.1,16.0,-9.9,
�É�����03,nagoya3,2012-06-12,17:53:07,4.09,16.4,16.3,-9.9,
�É�����03,nagoya3,2012-06-12,16:52:57,4.09,16.6,16.3,-9.9,
�É�����03,nagoya3,2012-06-12,15:52:46,4.07,17.2,16.9,-9.9,
�É�����03,nagoya3,2012-06-12,14:52:37,4.1,17.8,17.1,-9.9,
�É�����03,nagoya3,2012-06-12,13:52:27,4.1,17.4,16.7,-9.9,
�É�����03,nagoya3,2012-06-12,12:52:18,4.1,17.6,16.9,-9.9,
�É�����03,nagoya3,2012-06-12,11:52:09,4.1,17.8,17.5,-9.9,
�É�����03,nagoya3,2012-06-12,10:52:02,4.11,18,17.5,-9.9,
�É�����03,nagoya3,2012-06-12,09:51:51,4.13,17.8,17.3,-9.9,
�É�����03,nagoya3,2012-06-12,08:51:40,4.13,17.4,17.8,-9.9,
�É�����03,nagoya3,2012-06-12,07:51:31,4.13,19,18.7,-9.9,
�É�����03,nagoya3,2012-06-12,06:51:23,4.14,19,18.7,-9.9,
�É�����03,nagoya3,2012-06-12,05:51:16,4.14,18.9,18.7,-9.9,
�É�����03,nagoya3,2012-06-12,04:51:09,4.14,19.1,18.9,-9.9,
�É�����03,nagoya3,2012-06-12,03:51:01,4.14,19.1,19.1,-9.9,
�É�����03,nagoya3,2012-06-12,02:50:54,4.14,18.9,18.9,-9.9,
�É�����03,nagoya3,2012-06-12,01:50:46,4.15,19.2,19.1,-9.9,
�É�����03,nagoya3,2012-06-12,00:50:39,4.15,18.8,18.9,-9.9,
�É�����03,nagoya3,2012-06-11,23:50:34,4.15,18.8,18.9,-9.9,
�É�����03,nagoya3,2012-06-11,22:50:25,4.16,19.2,19.3,-9.9,
�É�����03,nagoya3,2012-06-11,21:50:17,4.16,19.5,19.4,-9.9,
�É�����03,nagoya3,2012-06-11,20:50:08,4.18,19.6,19.7,-9.9,
�É�����03,nagoya3,2012-06-11,18:49:54,4.18,19.7,19.9,-9.9,
�É�����03,nagoya3,2012-06-11,17:49:48,4.19,21,20.9,-9.9,
�É�����03,nagoya3,2012-06-11,15:49:41,4.19,23.9,22.8,-9.9,
�É�����03,nagoya3,2012-06-11,14:49:41,4.19,25.7,23.6,-9.9,
�É�����03,nagoya3,2012-06-11,13:49:41,4.19,25.8,23.6,-9.9,
�É�����03,nagoya3,2012-06-11,12:49:44,4.18,26.1,23.8,-9.9,
�É�����03,nagoya3,2012-06-11,11:49:47,4.19,22.9,21.8,-9.9,
�É�����03,nagoya3,2012-06-11,10:49:44,4.2,23.4,22.2,-9.9,
�É�����03,nagoya3,2012-06-11,09:49:44,4.18,29.3,25.3,-9.9,
�É�����03,nagoya3,2012-06-11,08:49:53,4.19,24.8,22.7,-9.9,
�É�����03,nagoya3,2012-06-11,07:49:46,4.19,21.5,20.2,-9.9,
�É�����03,nagoya3,2012-06-11,06:49:43,4.19,19.8,19.4,-9.9,
�É�����03,nagoya3,2012-06-11,05:49:31,4.2,19.9,19.3,-9.9,
�É�����03,nagoya3,2012-06-11,04:49:26,4.2,19.6,19.4,-9.9,
�É�����03,nagoya3,2012-06-11,03:49:19,4.2,19.7,19.7,-9.9,
�É�����03,nagoya3,2012-06-11,02:49:11,4.22,19.4,19.7,-9.9,
�É�����03,nagoya3,2012-06-11,01:49:05,4.22,20,19.9,-9.9,
�É�����03,nagoya3,2012-06-11,00:49:00,4.2,20.2,20.2,-9.9,
�É�����03,nagoya3,2012-06-10,23:48:55,4.23,20.2,20.2,-9.9,
�É�����03,nagoya3,2012-06-10,22:48:47,4.2,20.4,20.4,-9.9,
�É�����03,nagoya3,2012-06-10,21:48:41,4.23,20.6,20.7,-9.9,
�É�����03,nagoya3,2012-06-10,19:48:31,4.25,20,20.7,-9.9,
�É�����03,nagoya3,2012-06-10,18:48:22,4.25,21.5,21.8,-9.9,
�É�����03,nagoya3,2012-06-10,17:48:20,4.24,23.2,23.3,-9.9,
�É�����03,nagoya3,2012-06-10,16:48:15,4.25,23.3,23.3,-9.9,
�É�����03,nagoya3,2012-06-10,15:48:14,4.27,24.8,24.7,-9.9,
�É�����03,nagoya3,2012-06-10,14:48:13,4.27,27.1,24.1,-9.9,
�É�����03,nagoya3,2012-06-10,13:48:21,4.25,32.2,25.6,-9.9,
�É�����03,nagoya3,2012-06-10,12:48:32,4.27,31.4,24.5,-9.9,
�É�����03,nagoya3,2012-06-10,11:48:41,4.27,33.4,28.6,-9.9,
�É�����03,nagoya3,2012-06-10,10:48:53,4.25,33.6,28.0,-9.9,
�É�����03,nagoya3,2012-06-10,09:49:03,4.25,31.6,27.5,-9.9,
�É�����03,nagoya3,2012-06-10,08:49:14,4.24,30.4,27.0,-9.9,
�É�����03,nagoya3,2012-06-10,07:49:19,4.24,28.2,25.6,-9.9,
�É�����03,nagoya3,2012-06-10,06:49:18,4.25,21.9,20.9,-9.9,
�É�����03,nagoya3,2012-06-10,05:49:13,4.24,20.2,19.7,-9.9,
�É�����03,nagoya3,2012-06-10,04:49:07,4.24,19.4,19.3,-9.9,
�É�����03,nagoya3,2012-06-10,03:49:00,4.25,19.8,19.7,-9.9,
�É�����03,nagoya3,2012-06-10,02:48:53,4.25,20.1,19.9,-9.9,
�É�����03,nagoya3,2012-06-10,01:48:48,4.25,20.4,20.4,-9.9,
�É�����03,nagoya3,2012-06-10,00:48:44,4.27,20.6,20.4,-9.9,
�É�����03,nagoya3,2012-06-09,23:48:39,4.25,20,19.9,-9.9,
�É�����03,nagoya3,2012-06-09,22:48:30,4.25,19.9,19.9,-9.9,
�É�����03,nagoya3,2012-06-09,21:48:21,4.27,19.8,19.9,-9.9,
�É�����03,nagoya3,2012-06-09,20:48:14,4.27,19.5,19.7,-9.9,
�É�����03,nagoya3,2012-06-09,19:48:08,4.24,19.8,19.9,-9.9,
�É�����03,nagoya3,2012-06-09,18:48:02,4.27,21.3,21.2,-9.9,
�É�����03,nagoya3,2012-06-09,17:47:59,4.27,22.8,22.2,-9.9,
�É�����03,nagoya3,2012-06-09,16:47:56,4.27,23.8,22.8,-9.9,
�É�����03,nagoya3,2012-06-09,15:47:54,4.25,24.5,22.2,-9.9,
�É�����03,nagoya3,2012-06-09,14:47:55,4.25,25.4,22.7,-9.9,
�É�����03,nagoya3,2012-06-09,13:47:56,4.25,24.2,21.4,-9.9,
�É�����03,nagoya3,2012-06-09,12:47:51,4.27,21.4,19.3,-9.9,
�É�����03,nagoya3,2012-06-09,10:47:44,4.27,19.3,18.5,-9.9,
�É�����03,nagoya3,2012-06-09,09:47:36,4.27,19.4,18.5,-9.9,
�É�����03,nagoya3,2012-06-09,08:47:26,4.27,18.4,17.8,-9.9,
�É�����03,nagoya3,2012-06-09,07:47:18,4.28,18.1,17.5,-9.9,
�É�����03,nagoya3,2012-06-09,06:47:08,4.28,17.6,17.3,-9.9,
�É�����03,nagoya3,2012-06-09,05:46:59,4.28,17.2,16.9,-9.9,
�É�����03,nagoya3,2012-06-09,04:46:51,4.29,17.2,17.1,-9.9,
�É�����03,nagoya3,2012-06-09,03:46:40,4.28,17.6,17.5,-9.9,
�É�����03,nagoya3,2012-06-09,02:46:34,4.31,17.8,17.8,-9.9,
�É�����03,nagoya3,2012-06-09,01:46:21,4.31,17.7,17.8,-9.9,
�É�����03,nagoya3,2012-06-08,23:46:05,4.32,19.4,19.4,-9.9,
�É�����03,nagoya3,2012-06-08,22:45:59,4.32,19.8,20.2,-9.9,
�É�����03,nagoya3,2012-06-08,21:45:52,4.32,20.4,21.2,-9.9,
�É�����03,nagoya3,2012-06-08,20:45:46,4.32,21,21.4,-9.9,
�É�����03,nagoya3,2012-06-08,19:45:41,4.33,21,21.2,-9.9,
�É�����03,nagoya3,2012-06-08,18:45:37,4.33,21.7,22.0,-9.9,
�É�����03,nagoya3,2012-06-08,17:45:32,4.33,21.9,22.2,-9.9,
�É�����03,nagoya3,2012-06-08,16:45:28,4.33,21.6,22.2,-9.9,
�É�����03,nagoya3,2012-06-08,15:45:23,4.33,23.8,22.7,-9.9,
�É�����03,nagoya3,2012-06-08,14:45:25,4.33,27.4,24.5,-9.9,
�É�����03,nagoya3,2012-06-08,13:45:29,4.33,29.7,24.7,-9.9,
�É�����03,nagoya3,2012-06-08,12:45:36,4.33,29.2,24.7,-9.9,
�É�����03,nagoya3,2012-06-08,11:45:44,4.33,29,25.8,-9.9,
�É�����03,nagoya3,2012-06-08,10:45:48,4.33,29.8,26.2,-9.9,
�É�����03,nagoya3,2012-06-08,08:46:05,4.32,29.2,26.0,-9.9,
�É�����03,nagoya3,2012-06-08,07:46:10,4.31,27.6,26.5,-9.9,
�É�����03,nagoya3,2012-06-08,06:46:12,4.31,23,24.3,-9.9,
�É�����03,nagoya3,2012-06-08,05:46:04,4.32,16.9,17.1,-9.9,
�É�����03,nagoya3,2012-06-08,04:45:55,4.33,15.8,16.3,-9.9,
�É�����03,nagoya3,2012-06-08,03:45:40,4.33,16,16.5,-9.9,
�É�����03,nagoya3,2012-06-08,02:45:30,4.33,16.3,16.9,-9.9,
�É�����03,nagoya3,2012-06-08,01:45:18,4.34,16.9,17.1,-9.9,
�É�����03,nagoya3,2012-06-08,00:45:06,4.34,16.7,17.1,-9.9,
�É�����03,nagoya3,2012-06-07,22:44:49,4.36,17.4,18.0,-9.9,
�É�����03,nagoya3,2012-06-07,21:44:40,4.36,18,18.5,-9.9,
�É�����03,nagoya3,2012-06-07,20:44:26,4.37,18.3,18.9,-9.9,
�É�����03,nagoya3,2012-06-07,19:44:19,4.37,19,19.4,-9.9,
�É�����03,nagoya3,2012-06-07,18:44:12,4.37,21.2,21.2,-9.9,
�É�����03,nagoya3,2012-06-07,16:44:05,4.37,22.8,22.2,-9.9,
�É�����03,nagoya3,2012-06-07,15:44:04,4.37,23.1,22.2,-9.9,
�É�����03,nagoya3,2012-06-07,14:44:01,4.37,24.3,22.7,-9.9,
�É�����03,nagoya3,2012-06-07,13:43:59,4.37,24.6,22.7,-9.9,
�É�����03,nagoya3,2012-06-07,12:44:02,4.38,28.1,23.8,-9.9,
�É�����03,nagoya3,2012-06-07,11:44:05,4.38,26.8,24.3,-9.9,
�É�����03,nagoya3,2012-06-07,10:44:08,4.38,27.2,23.8,-9.9,
�É�����03,nagoya3,2012-06-07,09:44:10,4.36,27.8,24.7,-9.9,
�É�����03,nagoya3,2012-06-07,06:44:17,4.37,22.7,22.0,-9.9,
�É�����03,nagoya3,2012-06-07,05:44:09,4.38,18.1,17.8,-9.9,
�É�����03,nagoya3,2012-06-07,04:44:00,4.38,17.5,17.5,-9.9,
�É�����03,nagoya3,2012-06-07,03:43:50,4.4,17.4,17.5,-9.9,
�É�����03,nagoya3,2012-06-07,02:43:44,4.4,18,18.0,-9.9,
�É�����03,nagoya3,2012-06-07,01:43:33,4.4,18.2,18.5,-9.9,
�É�����03,nagoya3,2012-06-07,00:43:28,4.4,18.6,18.7,-9.9,
�É�����03,nagoya3,2012-06-06,23:43:16,4.41,19.1,19.3,-9.9,
�É�����03,nagoya3,2012-06-06,22:43:07,4.38,19.6,19.4,-9.9,
�É�����03,nagoya3,2012-06-06,21:43:00,4.41,19.8,19.9,-9.9,
�É�����03,nagoya3,2012-06-06,20:42:53,4.41,19.8,19.9,-9.9,
�É�����03,nagoya3,2012-06-06,19:42:46,4.4,20,20.2,-9.9,
�É�����03,nagoya3,2012-06-06,18:42:41,4.38,20.7,20.9,-9.9,
�É�����03,nagoya3,2012-06-06,17:42:34,4.41,22.3,21.8,-9.9,
�É�����03,nagoya3,2012-06-06,16:42:33,4.41,22.5,22.0,-9.9,
�É�����03,nagoya3,2012-06-06,15:42:30,4.41,23.9,22.7,-9.9,
�É�����03,nagoya3,2012-06-06,14:42:30,4.4,27.4,24.5,-9.9,
�É�����03,nagoya3,2012-06-06,13:42:32,4.41,27.4,24.1,-9.9,
�É�����03,nagoya3,2012-06-06,12:42:34,4.41,25,22.7,-9.9,
�É�����03,nagoya3,2012-06-06,11:42:37,4.41,28.6,24.9,-9.9,
�É�����03,nagoya3,2012-06-06,10:42:40,4.4,22.9,21.4,-9.9,
�É�����03,nagoya3,2012-06-06,09:42:39,4.4,26.1,22.7,-9.9,
�É�����03,nagoya3,2012-06-06,08:42:40,4.4,24.1,20.9,-9.9,
�É�����03,nagoya3,2012-06-06,07:42:36,4.41,19,18.3,-9.9,
�É�����03,nagoya3,2012-06-06,06:42:26,4.41,17.4,17.1,-9.9,
�É�����03,nagoya3,2012-06-06,05:42:17,4.41,17.6,17.3,-9.9,
�É�����03,nagoya3,2012-06-06,04:42:06,4.41,17.1,16.9,-9.9,
�É�����03,nagoya3,2012-06-06,03:41:55,4.41,16.9,16.7,-9.9,
�É�����03,nagoya3,2012-06-06,02:41:47,4.41,17.2,16.9,-9.9,
�É�����03,nagoya3,2012-06-06,01:41:36,4.4,17.2,16.9,-9.9,
�É�����03,nagoya3,2012-06-06,00:41:25,4.42,17.6,17.5,-9.9,
�É�����03,nagoya3,2012-06-05,23:41:16,4.42,17.6,17.5,-9.9,
�É�����03,nagoya3,2012-06-05,22:41:08,4.42,17.4,17.5,-9.9,
�É�����03,nagoya3,2012-06-05,21:40:58,4.43,17.4,17.5,-9.9,
�É�����03,nagoya3,2012-06-05,20:40:47,4.43,18.8,18.9,-9.9,
�É�����03,nagoya3,2012-06-05,19:40:38,4.43,18.9,18.9,-9.9,
�É�����03,nagoya3,2012-06-05,18:40:33,4.45,19.7,19.7,-9.9,
�É�����03,nagoya3,2012-06-05,17:40:26,4.43,20.6,20.4,-9.9,
�É�����03,nagoya3,2012-06-05,16:40:21,4.45,21.9,21.6,-9.9,
�É�����03,nagoya3,2012-06-05,14:40:17,4.43,24.6,22.7,-9.9,
�É�����03,nagoya3,2012-06-05,13:40:14,4.42,23.3,22.0,-9.9,
�É�����03,nagoya3,2012-06-05,12:40:11,4.45,24.2,22.2,-9.9,
�É�����03,nagoya3,2012-06-05,11:40:11,4.45,23.1,22.0,-9.9,
�É�����03,nagoya3,2012-06-05,10:40:08,4.45,23.4,21.6,-9.9,
�É�����03,nagoya3,2012-06-05,09:40:05,4.43,21.9,20.4,-9.9,
�É�����03,nagoya3,2012-06-05,08:40:01,4.45,19.8,19.1,-9.9,
�É�����03,nagoya3,2012-06-05,07:40:02,4.45,19.1,18.7,-9.9,
�É�����03,nagoya3,2012-06-05,06:39:46,4.45,18.5,18.3,-9.9,
�É�����03,nagoya3,2012-06-05,05:39:36,4.45,17.2,17.3,-9.9,
�É�����03,nagoya3,2012-06-05,04:39:26,4.46,17,17.1,-9.9,
�É�����03,nagoya3,2012-06-05,03:39:16,4.46,17.2,17.3,-9.9,
�É�����03,nagoya3,2012-06-05,02:39:05,4.46,17.1,17.3,-9.9,
�É�����03,nagoya3,2012-06-05,01:38:56,4.46,17.2,17.5,-9.9,
�É�����03,nagoya3,2012-06-05,00:38:45,4.47,17.3,17.5,-9.9,
�É�����03,nagoya3,2012-06-04,23:38:36,4.47,17.8,18.3,-9.9,
�É�����03,nagoya3,2012-06-04,22:38:27,4.47,18,18.7,-9.9,
�É�����03,nagoya3,2012-06-04,21:38:19,4.47,18.5,19.1,-9.9,
�É�����03,nagoya3,2012-06-04,20:38:10,4.49,19.1,19.7,-9.9,
�É�����03,nagoya3,2012-06-04,19:38:01,4.49,19.2,19.7,-9.9,
�É�����03,nagoya3,2012-06-04,18:37:55,4.49,20.8,21.4,-9.9,
�É�����03,nagoya3,2012-06-04,17:37:50,4.5,22.8,22.4,-9.9,
�É�����03,nagoya3,2012-06-04,16:37:48,4.5,25.6,23.8,-9.9,
�É�����03,nagoya3,2012-06-04,15:37:52,4.5,26.6,24.3,-9.9,
�É�����03,nagoya3,2012-06-04,13:37:56,4.49,28.9,24.9,-9.9,
�É�����03,nagoya3,2012-06-04,12:38:03,4.47,31.3,25.8,-9.9,
�É�����03,nagoya3,2012-06-04,11:38:10,4.5,27.8,25.6,-9.9,
�É�����03,nagoya3,2012-06-04,10:38:14,4.49,28.2,25.3,-9.9,
�É�����03,nagoya3,2012-06-04,09:38:17,4.5,26.9,24.3,-9.9,
�É�����03,nagoya3,2012-06-04,08:38:21,4.49,27.1,25.1,-9.9,
�É�����03,nagoya3,2012-06-04,07:38:24,4.47,26.3,26.0,-9.9,
�É�����03,nagoya3,2012-06-04,06:38:28,4.47,21.7,22.7,-9.9,
�É�����03,nagoya3,2012-06-04,05:38:16,4.49,15.7,15.9,-9.9,
�É�����03,nagoya3,2012-06-04,04:38:01,4.49,15,15.4,-9.9,
�É�����03,nagoya3,2012-06-04,03:37:49,4.49,15.3,15.6,-9.9,
�É�����03,nagoya3,2012-06-04,02:37:38,4.5,16.1,16.7,-9.9,
�É�����03,nagoya3,2012-06-04,01:37:27,4.5,17.3,17.3,-9.9,
�É�����03,nagoya3,2012-06-04,00:37:19,4.5,16.7,17.3,-9.9,
�É�����03,nagoya3,2012-06-03,23:37:06,4.5,16.6,17.1,-9.9,
�É�����03,nagoya3,2012-06-03,22:36:53,4.49,17.4,18.0,-9.9,
�É�����03,nagoya3,2012-06-03,21:36:45,4.51,18.1,18.7,-9.9,
�É�����03,nagoya3,2012-06-03,20:36:37,4.51,18.9,19.1,-9.9,
�É�����03,nagoya3,2012-06-03,19:36:29,4.51,19.3,19.7,-9.9,
�É�����03,nagoya3,2012-06-03,18:36:21,4.51,20.7,20.7,-9.9,
�É�����03,nagoya3,2012-06-03,17:36:17,4.51,21.9,21.6,-9.9,
�É�����03,nagoya3,2012-06-03,16:36:13,4.51,23.1,22.4,-9.9,
�É�����03,nagoya3,2012-06-03,15:36:13,4.51,24.4,22.7,-9.9,
�É�����03,nagoya3,2012-06-03,14:36:14,4.5,27.1,23.3,-9.9,
�É�����03,nagoya3,2012-06-03,13:36:18,4.51,26.7,22.8,-9.9,
�É�����03,nagoya3,2012-06-03,12:36:20,4.5,25.8,22.2,-9.9,
�É�����03,nagoya3,2012-06-03,11:36:20,4.5,22.5,20.4,-9.9,
�É�����03,nagoya3,2012-06-03,10:36:15,4.51,18.2,17.3,-9.9,
�É�����03,nagoya3,2012-06-03,09:36:04,4.52,17.1,16.7,-9.9,
�É�����03,nagoya3,2012-06-03,08:35:54,4.51,18,17.8,-9.9,
�É�����03,nagoya3,2012-06-03,07:35:46,4.52,19.1,18.9,-9.9,
�É�����03,nagoya3,2012-06-03,05:35:36,4.54,19.3,19.3,-9.9,
�É�����03,nagoya3,2012-06-03,04:35:27,4.54,18.9,19.3,-9.9,
�É�����03,nagoya3,2012-06-03,03:35:18,4.55,18.6,19.1,-9.9,
�É�����03,nagoya3,2012-06-03,02:35:10,4.54,19.4,19.1,-9.9,
�É�����03,nagoya3,2012-06-03,01:35:04,4.55,19.1,19.4,-9.9,
�É�����03,nagoya3,2012-06-03,00:34:56,4.55,19.4,19.7,-9.9,
�É�����03,nagoya3,2012-06-02,23:34:51,4.54,18.8,19.1,-9.9,
�É�����03,nagoya3,2012-06-02,22:34:42,4.56,18.9,19.3,-9.9,
�É�����03,nagoya3,2012-06-02,21:34:33,4.56,19.3,19.4,-9.9,
�É�����03,nagoya3,2012-06-02,20:34:25,4.56,19.2,19.4,-9.9,
�É�����03,nagoya3,2012-06-02,19:34:19,4.58,19.4,19.9,-9.9,
�É�����03,nagoya3,2012-06-02,18:34:12,4.59,20.3,20.7,-9.9,
�É�����03,nagoya3,2012-06-02,17:34:07,4.59,21.8,21.8,-9.9,
�É�����03,nagoya3,2012-06-02,16:34:03,4.59,23.4,22.4,-9.9,
�É�����03,nagoya3,2012-06-02,15:34:02,4.6,24.8,23.3,-9.9,
�É�����03,nagoya3,2012-06-02,14:34:03,4.6,26.2,23.8,-9.9,
�É�����03,nagoya3,2012-06-02,13:34:06,4.6,25.4,23.1,-9.9,
�É�����03,nagoya3,2012-06-02,12:34:06,4.6,27.1,24.5,-9.9,
�É�����03,nagoya3,2012-06-02,11:34:09,4.6,26.9,24.5,-9.9,
�É�����03,nagoya3,2012-06-02,10:34:11,4.6,26.3,24.1,-9.9,
�É�����03,nagoya3,2012-06-02,09:34:13,4.61,25.8,23.8,-9.9,
�É�����03,nagoya3,2012-06-02,08:34:15,4.6,25.8,23.8,-9.9,
�É�����03,nagoya3,2012-06-02,07:34:16,4.6,24.9,23.6,-9.9,
�É�����03,nagoya3,2012-06-02,06:34:13,4.6,21.7,21.2,-9.9,
�É�����03,nagoya3,2012-06-02,05:34:08,4.61,17.3,17.3,-9.9,
�É�����03,nagoya3,2012-06-02,04:33:58,4.61,16.2,16.9,-9.9,
�É�����03,nagoya3,2012-06-02,03:33:46,4.63,16.2,16.9,-9.9,
�É�����03,nagoya3,2012-06-02,02:33:34,4.64,16.6,17.1,-9.9,
�É�����03,nagoya3,2012-06-02,01:33:22,4.64,16.8,17.3,-9.9,
�É�����03,nagoya3,2012-06-02,00:33:12,4.65,17.2,17.8,-9.9,
�É�����03,nagoya3,2012-06-01,23:33:02,4.65,17.5,18.0,-9.9,
�É�����03,nagoya3,2012-06-01,22:32:53,4.67,18.2,18.7,-9.9,
�É�����03,nagoya3,2012-06-01,21:32:48,4.67,19.6,19.9,-9.9,
�É�����03,nagoya3,2012-06-01,20:32:41,4.68,20.1,20.7,-9.9,
�É�����03,nagoya3,2012-06-01,19:32:32,4.67,20.6,21.2,-9.9,
�É�����03,nagoya3,2012-06-01,18:32:27,4.68,21.2,21.6,-9.9,
�É�����03,nagoya3,2012-06-01,17:32:24,4.69,22.4,22.2,-9.9,
�É�����03,nagoya3,2012-06-01,16:32:19,4.69,23.6,23.1,-9.9,
�É�����03,nagoya3,2012-06-01,15:32:18,4.71,24.3,23.6,-9.9,
�É�����03,nagoya3,2012-06-01,14:32:20,4.69,32.2,26.0,-9.9,
�É�����03,nagoya3,2012-06-01,13:32:31,4.71,31.7,26.5,-9.9,
�É�����03,nagoya3,2012-06-01,12:32:39,4.71,30.9,25.8,-9.9,
�É�����03,nagoya3,2012-06-01,11:32:47,4.69,30.9,28.0,-9.9,
�É�����03,nagoya3,2012-06-01,10:32:55,4.69,29.6,26.2,-9.9,
�É�����03,nagoya3,2012-06-01,09:33:02,4.69,29.9,26.0,-9.9,
�É�����03,nagoya3,2012-06-01,08:33:06,4.69,28.7,25.8,-9.9,
�É�����03,nagoya3,2012-06-01,07:33:11,4.69,25.6,24.9,-9.9,
�É�����03,nagoya3,2012-06-01,06:33:10,4.69,21.3,21.2,-9.9,
�É�����03,nagoya3,2012-06-01,05:33:01,4.71,16.8,16.9,-9.9,
�É�����03,nagoya3,2012-06-01,04:32:49,4.72,16.2,16.7,-9.9,
�É�����03,nagoya3,2012-06-01,03:32:40,4.72,16.1,16.5,-9.9,
�É�����03,nagoya3,2012-06-01,02:32:29,4.72,16.8,17.1,-9.9,
�É�����03,nagoya3,2012-06-01,01:32:18,4.73,16.9,17.1,-9.9,
�É�����03,nagoya3,2012-06-01,00:32:07,4.73,16.9,17.3,-9.9,
�É�����03,nagoya3,2012-05-31,23:31:58,4.73,17,17.3,-9.9,
�É�����03,nagoya3,2012-05-31,22:31:47,4.74,16.9,17.5,-9.9,
�É�����03,nagoya3,2012-05-31,21:31:37,4.76,17.4,18.0,-9.9,
�É�����03,nagoya3,2012-05-31,20:31:26,4.76,17.8,18.5,-9.9,
�É�����03,nagoya3,2012-05-31,18:31:10,4.77,19.9,20.2,-9.9,
�É�����03,nagoya3,2012-05-31,17:31:05,4.77,21.5,21.2,-9.9,
�É�����03,nagoya3,2012-05-31,16:31:00,4.77,23.3,22.2,-9.9,
�É�����03,nagoya3,2012-05-31,15:30:59,4.78,24,22.4,-9.9,
�É�����03,nagoya3,2012-05-31,14:30:59,4.77,24.8,22.2,-9.9,
�É�����03,nagoya3,2012-05-31,13:31:00,4.78,25.5,22.4,-9.9,
�É�����03,nagoya3,2012-05-31,12:31:03,4.78,26.6,23.1,-9.9,
�É�����03,nagoya3,2012-05-31,11:31:07,4.77,28.3,25.8,-9.9,
�É�����03,nagoya3,2012-05-31,10:31:11,4.78,27.6,24.3,-9.9,
�É�����03,nagoya3,2012-05-31,09:31:15,4.78,26.3,24.1,-9.9,
�É�����03,nagoya3,2012-05-31,08:31:17,4.77,24.5,22.2,-9.9,
�É�����03,nagoya3,2012-05-31,07:31:13,4.78,21.3,19.9,-9.9,
�É�����03,nagoya3,2012-05-31,06:31:09,4.8,20.4,19.4,-9.9,
�É�����03,nagoya3,2012-05-31,05:31:01,4.8,18.7,18.5,-9.9,
�É�����03,nagoya3,2012-05-31,04:30:52,4.8,17.8,18.0,-9.9,
�É�����03,nagoya3,2012-05-31,03:30:43,4.81,17.7,18.0,-9.9,
�É�����03,nagoya3,2012-05-31,02:30:34,4.81,17.1,17.5,-9.9,
�É�����03,nagoya3,2012-05-31,01:30:26,4.82,17.3,17.8,-9.9,
�É�����03,nagoya3,2012-05-31,00:30:14,4.82,17.4,17.5,-9.9,
�É�����03,nagoya3,2012-05-30,23:30:04,4.83,17.6,18.0,-9.9,
�É�����03,nagoya3,2012-05-30,22:29:54,4.83,18,18.3,-9.9,
�É�����03,nagoya3,2012-05-30,21:29:48,4.83,18,18.5,-9.9,
�É�����03,nagoya3,2012-05-30,20:29:36,4.83,18.7,19.1,-9.9,
�É�����03,nagoya3,2012-05-30,19:29:27,4.85,18.8,19.3,-9.9,
�É�����03,nagoya3,2012-05-30,17:29:14,4.85,21.3,20.7,-9.9,
�É�����03,nagoya3,2012-05-30,16:29:11,4.85,23.3,22.4,-9.9,
�É�����03,nagoya3,2012-05-30,14:29:09,4.85,25.4,22.8,-9.9,
�É�����03,nagoya3,2012-05-30,13:29:09,4.85,25.3,22.4,-9.9,
�É�����03,nagoya3,2012-05-30,12:29:11,4.85,25.3,22.7,-9.9,
�É�����03,nagoya3,2012-05-30,11:29:13,4.85,25.4,23.3,-9.9,
�É�����03,nagoya3,2012-05-30,10:29:14,4.85,27.4,24.1,-9.9,
�É�����03,nagoya3,2012-05-30,09:29:16,4.85,27,23.8,-9.9,
�É�����03,nagoya3,2012-05-30,08:29:20,4.85,25,22.0,-9.9,
�É�����03,nagoya3,2012-05-30,07:29:19,4.85,22.4,21.8,-9.9,
�É�����03,nagoya3,2012-05-30,06:29:12,4.86,17.8,17.1,-9.9,
�É�����03,nagoya3,2012-05-30,05:29:01,4.86,16.9,16.7,-9.9,
�É�����03,nagoya3,2012-05-30,04:28:49,4.87,16.3,16.5,-9.9,
�É�����03,nagoya3,2012-05-30,03:28:39,4.87,16.6,16.5,-9.9,
�É�����03,nagoya3,2012-05-30,02:28:27,4.87,16.9,17.1,-9.9,
�É�����03,nagoya3,2012-05-30,01:28:18,4.89,16.8,16.9,-9.9,
�É�����03,nagoya3,2012-05-30,00:28:08,4.89,16.8,16.9,-9.9,
�É�����03,nagoya3,2012-05-29,23:27:56,4.9,16.8,17.3,-9.9,
�É�����03,nagoya3,2012-05-29,22:27:46,4.9,16.3,16.9,-9.9,
�É�����03,nagoya3,2012-05-29,21:27:33,4.91,16.4,17.1,-9.9,
�É�����03,nagoya3,2012-05-29,20:27:24,4.91,20,20.4,-9.9,
�É�����03,nagoya3,2012-05-29,19:27:17,4.91,19.7,20.2,-9.9,
�É�����03,nagoya3,2012-05-29,18:27:12,4.91,20.2,20.4,-9.9,
�É�����03,nagoya3,2012-05-29,17:27:06,4.92,21,20.9,-9.9,
�É�����03,nagoya3,2012-05-29,16:27:02,4.92,22.1,21.6,-9.9,
�É�����03,nagoya3,2012-05-29,15:26:59,4.91,23.2,22.0,-9.9,
�É�����03,nagoya3,2012-05-29,14:26:56,4.92,24.5,22.7,-9.9,
�É�����03,nagoya3,2012-05-29,13:26:55,4.92,24.5,22.8,-9.9,
�É�����03,nagoya3,2012-05-29,12:27:01,4.92,27.8,24.3,-9.9,
�É�����03,nagoya3,2012-05-29,11:27:04,4.91,30,26.2,-9.9,
�É�����03,nagoya3,2012-05-29,10:27:09,4.91,27.1,24.5,-9.9,
�É�����03,nagoya3,2012-05-29,09:27:12,4.91,28.1,25.3,-9.9,
�É�����03,nagoya3,2012-05-29,08:27:15,4.9,27.8,24.7,-9.9,
�É�����03,nagoya3,2012-05-29,07:27:18,4.91,26.2,26.0,-9.9,
�É�����03,nagoya3,2012-05-29,06:27:17,4.9,20.2,19.4,-9.9,